カタログに戻る

STARLINK-32772

運用中通信VLEO
NORAD 63033·PAYLOAD·🇺🇸 United States

打ち上げ Feb 18, 2025 から Cape Canaveral Space Force Station

Loading…

次のパス (今後24時間)

TLE

最新Source: CelesTrak SupGP

元期: Sep 14, 2026, 22:52 UTC

1 63033C 25034E   26257.95326389 -.00100240  00000+0 -32247-2 0  2571
2 63033  53.1566  97.9998 0001183  90.7201  77.4184 15.31739925    13

AllMySatでSTARLINK-32772をリアルタイム追跡

Download on the App Store